This demonstration page uses our WeatherBlox Daily Observations layout. Learn more.

Hourly Observations for August 6, 2019

Temp ( °F °C ) Dew Point ( °F °C ) Humidity (%) Winds ( mph kmh ) Pressure ( in mb ) Visibility ( mi km ) Precip ( " mm )
12:15 am 00:15 Clear 69 20.8 67 19.6 93 93 WNW 5 7 29.94 1014 10 16.09344 0 0
12:35 am 00:35 Clear 69 20.3 67 19.6 96 96 NNW 5 7 29.94 1014 10 16.09344 0 0
12:55 am 00:55 Clear 68 20.2 67 19.6 96 96 NW 5 7 29.94 1014 10 16.09344 0 0
1:15 am 01:15 Clear 68 19.9 67 19.5 98 98 Calm 29.97 1015 10 16.09344 0 0
1:35 am 01:35 Clear 68 20 67 19.5 97 97 Calm 29.97 1015 10 16.09344 0 0
1:55 am 01:55 Clear 68 19.9 67 19.6 98 98 NW 5 7 29.97 1015 10 16.09344 0 0
2:15 am 02:15 Clear 67 19.6 67 19.2 98 98 Calm 29.97 1015 7 11.265408 0 0
2:35 am 02:35 Clear 67 19.3 66 19.1 99 99 WNW 5 7 29.97 1015 10 16.09344 0 0
2:55 am 02:55 Clear 67 19.3 67 19.2 99 99 NNW 3 6 29.97 1015 7 11.265408 0 0
3:15 am 03:15 Clear 67 19.2 67 19.2 100 100 Calm 29.97 1015 7 11.265408 0 0
3:35 am 03:35 Clear 66 19.1 66 19 99 99 Calm 29.97 1015 7 11.265408 0 0
3:55 am 03:55 Clear 66 19 66 19 100 100 Calm 29.97 1015 7 11.265408 0 0
4:15 am 04:15 Clear 66 18.9 66 18.9 100 100 Calm 29.97 1015 7 11.265408 0 0
4:35 am 04:35 Clear 65 18.5 65 18.5 100 100 ENE 3 6 29.97 1015 7 11.265408 0 0
4:55 am 04:55 Clear 65 18.5 65 18.5 100 100 ENE 5 7 29.97 1015 7 11.265408 0 0
5:15 am 05:15 Clear 65 18.6 65 18.5 99 99 E 5 7 29.97 1015 10 16.09344 0 0
5:35 am 05:35 Clear 65 18.6 65 18.3 98 98 E 3 6 29.97 1015 10 16.09344 0 0
5:55 am 05:55 Clear 65 18.1 65 18.1 100 100 E 5 7 29.97 1015 7 11.265408 0 0
6:15 am 06:15 Clear 64 18 64 18 100 100 ENE 5 7 29.97 1015 7 11.265408 0 0
6:35 am 06:35 Clear 64 18 64 18 100 100 E 3 6 29.97 1015 7 11.265408 0 0
6:55 am 06:55 Sunny with Mist and Fog 64 17.8 64 17.8 100 100 E 3 6 29.97 1015 5 8.04672 0 0
7:15 am 07:15 Sunny with Mist and Fog 64 17.8 64 17.8 100 100 Calm 29.97 1015 5 8.04672 0 0
7:35 am 07:35 Sunny 65 18.5 65 18.2 98 98 Calm 29.97 1015 7 11.265408 0 0
7:55 am 07:55 Sunny 66 19.1 65 18.6 97 97 E 3 6 29.97 1015 10 16.09344 0 0
8:15 am 08:15 Sunny 67 19.6 65 18.6 94 94 E 5 7 29.97 1015 10 16.09344 0 0
8:35 am 08:35 Sunny 69 20.5 66 19 91 91 ENE 9 15 29.94 1014 10 16.09344 0 0
8:55 am 08:55 Sunny 70 21.1 67 19.3 90 90 E 6 9 29.94 1014 10 16.09344 0 0
9:15 am 09:15 Partly Cloudy 71 21.8 67 19.6 87 87 E 8 13 29.94 1014 10 16.09344 0 0
9:35 am 09:35 Sunny 72 22.3 67 19.7 85 85 E 6 9 29.94 1014 10 16.09344 0 0
9:55 am 09:55 Sunny 74 23.4 68 20.1 82 82 SE 8 13 29.94 1014 10 16.09344 0 0
10:15 am 10:15 Sunny 75 23.8 68 19.9 79 79 SE 8 13 29.91 1013 10 16.09344 0 0
10:35 am 10:35 Sunny 76 24.6 68 19.8 75 75 SE 9 15 29.91 1013 10 16.09344 0 0
10:55 am 10:55 Partly Cloudy 78 25.3 68 20.1 73 73 SE 8 13 29.91 1013 10 16.09344 0 0
11:15 am 11:15 Partly Cloudy 78 25.6 67 19.6 70 70 ESE 9 15 29.91 1013 10 16.09344 0 0
11:35 am 11:35 Sunny 79 26.2 67 19.2 65 65 ESE 8 13 29.91 1013 10 16.09344 0 0
11:55 am 11:55 Sunny 81 27.2 67 19.6 63 63 SSE 10 17 29.91 1013 10 16.09344 0 0
12:15 pm 12:15 Sunny 81 27.1 65 18.6 60 60 SE 12 19 29.91 1013 10 16.09344 0 0
12:35 pm 12:35 Sunny 82 27.6 67 19.6 62 62 SSE 10 17 29.88 1012 10 16.09344 0 0
12:55 pm 12:55 Sunny 82 27.9 67 19.7 61 61 SSE 10 17 29.88 1012 10 16.09344 0 0
1:15 pm 13:15 Sunny 83 28.5 68 20.2 61 61 SSE 9 15 29.88 1012 10 16.09344 0 0
1:35 pm 13:35 Sunny 83 28.4 68 19.9 60 60 SSE 10 17 29.88 1012 10 16.09344 0 0
1:55 pm 13:55 Sunny 83 28.6 69 20.4 61 61 S 8 13 29.88 1012 10 16.09344 0 0
2:15 pm 14:15 Sunny 84 28.9 69 20.4 60 60 SSE 10 17 29.85 1011 10 16.09344 0 0
2:35 pm 14:35 Sunny 84 28.8 69 20.8 62 62 SSE 12 19 29.85 1011 7 11.265408 0 0
2:55 pm 14:55 Sunny 85 29.4 70 21.3 62 62 S 10 17 29.85 1011 10 16.09344 0 0
3:15 pm 15:15 Sunny 86 29.8 70 21.2 60 60 SE 9 15 29.85 1011 10 16.09344 0 0
3:35 pm 15:35 Sunny 85 29.6 70 21.3 61 61 SSE 8 13 29.83 1010 10 16.09344 0 0
3:55 pm 15:55 Sunny 86 29.8 71 21.4 61 61 SE 7 11 29.83 1010 10 16.09344 0 0
4:15 pm 16:15 Sunny 86 30.2 71 21.9 61 61 SE 8 13 29.83 1010 10 16.09344 0 0
4:35 pm 16:35 Sunny 87 30.3 72 22.2 62 62 SE 10 17 29.8 1009 10 16.09344 0 0
4:55 pm 16:55 Sunny 87 30.4 72 22.3 62 62 SE 7 11 29.8 1009 10 16.09344 0 0
5:15 pm 17:15 Partly Cloudy 87 30.5 72 22.4 62 62 SE 9 15 29.8 1009 10 16.09344 0 0
5:35 pm 17:35 Sunny 87 30.4 72 22 61 61 SSE 7 11 29.77 1008 10 16.09344 0 0
5:55 pm 17:55 Sunny 87 30.6 72 22.1 60 60 SSE 9 15 29.77 1008 10 16.09344 0 0
6:15 pm 18:15 Sunny 87 30.7 73 22.5 62 62 SSE 8 13 29.77 1008 10 16.09344 0 0
6:35 pm 18:35 Sunny 87 30.4 72 22.1 61 61 SSE 8 13 29.74 1007 10 16.09344 0 0
6:55 pm 18:55 Sunny 86 30.1 72 22.4 63 63 SE 7 11 29.74 1007 10 16.09344 0 0
7:15 pm 19:15 Sunny 86 29.8 73 22.5 65 65 SE 8 13 29.74 1007 10 16.09344 0 0
7:30 pm 19:30 Sunny 85 29.3 72 22.4 66 66 ESE 10 17 29.77 1008 10 16.09344 0 0
7:55 pm 19:55 Sunny 83 28.5 72 22.3 69 69 SE 12 19 29.77 1008 10 16.09344 0 0
8:15 pm 20:15 Sunny 82 27.6 72 22 72 72 SE 9 15 29.77 1008 10 16.09344 0 0
8:35 pm 20:35 Sunny 81 27 72 22.1 75 75 SE 7 11 29.77 1008 10 16.09344 0 0
8:55 pm 20:55 Clear 79 26.3 72 22 77 77 SE 7 11 29.77 1008 10 16.09344 0 0
9:15 pm 21:15 Clear 79 26 72 22.1 79 79 SE 7 11 29.77 1008 10 16.09344 0 0
9:35 pm 21:35 Clear 78 25.6 72 22.1 81 81 SE 8 13 29.83 1010 10 16.09344 0 0
9:55 pm 21:55 Clear 77 25.2 72 22 82 82 SE 9 15 29.83 1010 10 16.09344 0 0
10:15 pm 22:15 Clear 76 24.7 72 22 85 85 SE 9 15 29.83 1010 10 16.09344 0 0
10:35 pm 22:35 Clear 76 24.6 72 22 86 86 SE 8 13 29.83 1010 10 16.09344 0 0
10:55 pm 22:55 Clear 76 24.5 72 22 86 86 SE 8 13 29.8 1009 10 16.09344 0 0
11:15 pm 23:15 Clear 75 24.1 72 22 88 88 SE 10 17 29.8 1009 10 16.09344 0 0
11:35 pm 23:35 Clear 74 23.5 72 22 91 91 SSE 7 11 29.8 1009 10 16.09344 0 0
11:55 pm 23:55 Clear 74 23.2 71 21.8 92 92 SSE 8 13 29.77 1008 10 16.09344 0 0

Powered by AerisWeather